• In Hungary
  • List of Countries
  • For 7 days
  • Water Temperature
  • Satellite Maps
  • Weather Map
  • News
  • Weather Widgets
  • user-avatar
    Login

    Hourly Weather Prägraten

    Today, 20 May, Sunday

    Time Temperature Precipitation Wind Pressure Humidity
    00:00 +1°C° 0.1 mm 1 mps 578 mmHg 96%
    01:00 0°C° 0 mm 1 mps 578 mmHg 96%
    02:00 0°C° 0 mm 1 mps 578 mmHg 96%
    03:00 0°C° 0 mm 1 mps 578 mmHg 95%
    04:00 0°C° 0 mm 1 mps 578 mmHg 95%
    05:00 +1°C° 0.1 mm 1 mps 578 mmHg 94%
    06:00 +2°C° 0.1 mm 1 mps 579 mmHg 93%
    07:00 +3°C° 0.1 mm 1 mps 579 mmHg 91%
    08:00 +4°C° 0.1 mm 1 mps 580 mmHg 86%
    09:00 +5°C° 0.1 mm 1 mps 580 mmHg 80%
    10:00 +7°C° 0.1 mm 1 mps 581 mmHg 75%
    11:00 +7°C° 0.5 mm 1 mps 581 mmHg 76%
    12:00 +6°C° 0.5 mm 2 mps 581 mmHg 77%
    13:00 +6°C° 0.5 mm 2 mps 581 mmHg 78%
    14:00 +6°C° 0.7 mm 2 mps 580 mmHg 79%
    15:00 +6°C° 0.7 mm 2 mps 580 mmHg 81%
    16:00 +6°C° 0.7 mm 2 mps 580 mmHg 82%
    17:00 +5°C° 0.4 mm 2 mps 580 mmHg 85%
    18:00 +4°C° 0.4 mm 2 mps 579 mmHg 88%
    19:00 +4°C° 0.4 mm 2 mps 579 mmHg 90%
    20:00 +3°C° 0.1 mm 2 mps 579 mmHg 92%
    21:00 +2°C° 0.1 mm 2 mps 578 mmHg 94%
    22:00 +1°C° 0.1 mm 2 mps 578 mmHg 96%
    23:00 -1°C° 0 mm 2 mps 578 mmHg 96%

    Tomorrow, 21 May, Monday

    Time Temperature Precipitation Wind Pressure Humidity
    00:00 -1°C° 0 mm 2 mps 578 mmHg 96%
    01:00 -1°C° 0 mm 2 mps 577 mmHg 96%
    02:00 -2°C° 0 mm 2 mps 577 mmHg 95%
    03:00 -2°C° 0 mm 2 mps 577 mmHg 95%
    04:00 -2°C° 0 mm 2 mps 577 mmHg 95%
    05:00 -1°C° 0 mm 2 mps 577 mmHg 92%
    06:00 +1°C° 0 mm 2 mps 578 mmHg 90%
    07:00 +3°C° 0 mm 2 mps 578 mmHg 87%
    08:00 +5°C° 0 mm 1 mps 579 mmHg 81%
    09:00 +7°C° 0 mm 1 mps 580 mmHg 74%
    10:00 +9°C° 0 mm 1 mps 580 mmHg 67%
    11:00 +10°C° 0.2 mm 1 mps 580 mmHg 66%
    12:00 +9°C° 0.2 mm 2 mps 580 mmHg 65%
    13:00 +10°C° 0.2 mm 2 mps 580 mmHg 64%
    14:00 +10°C° 0.5 mm 2 mps 580 mmHg 67%
    15:00 +9°C° 0.5 mm 2 mps 579 mmHg 70%
    16:00 +9°C° 0.5 mm 2 mps 579 mmHg 72%
    17:00 +7°C° 0.6 mm 2 mps 578 mmHg 77%
    18:00 +7°C° 0.6 mm 1 mps 578 mmHg 82%
    19:00 +6°C° 0.6 mm 1 mps 577 mmHg 88%
    20:00 +5°C° 0.3 mm 1 mps 577 mmHg 90%
    21:00 +3°C° 0.3 mm 2 mps 577 mmHg 92%
    22:00 +2°C° 0.3 mm 2 mps 576 mmHg 95%
    23:00 +2°C° 0 mm 2 mps 576 mmHg 95%

    Day after tomorrow, 22 May, Tuesday

    Time Temperature Precipitation Wind Pressure Humidity
    00:00 +1°C° 0 mm 2 mps 576 mmHg 95%
    01:00 +1°C° 0 mm 2 mps 576 mmHg 95%
    02:00 +1°C° 0 mm 2 mps 575 mmHg 95%
    03:00 +1°C° 0 mm 1 mps 575 mmHg 95%
    04:00 +1°C° 0 mm 1 mps 575 mmHg 95%
    05:00 +2°C° 0 mm 1 mps 576 mmHg 92%
    06:00 +4°C° 0 mm 1 mps 576 mmHg 89%
    07:00 +5°C° 0 mm 1 mps 577 mmHg 86%
    08:00 +7°C° 0 mm 1 mps 578 mmHg 79%
    09:00 +8°C° 0 mm 1 mps 579 mmHg 72%
    10:00 +10°C° 0 mm 1 mps 580 mmHg 64%
    11:00 +10°C° 0.5 mm 1 mps 580 mmHg 66%
    12:00 +10°C° 0.5 mm 1 mps 580 mmHg 67%
    13:00 +9°C° 0.5 mm 2 mps 580 mmHg 69%
    14:00 +9°C° 0.9 mm 2 mps 579 mmHg 70%
    15:00 +10°C° 0.9 mm 1 mps 579 mmHg 72%
    16:00 +9°C° 0.9 mm 1 mps 579 mmHg 73%
    17:00 +8°C° 0.7 mm 1 mps 579 mmHg 78%
    18:00 +7°C° 0.7 mm 1 mps 578 mmHg 83%
    19:00 +6°C° 0.7 mm 1 mps 578 mmHg 87%
    20:00 +5°C° 0.1 mm 1 mps 578 mmHg 90%
    21:00 +4°C° 0.1 mm 1 mps 578 mmHg 92%
    22:00 +3°C° 0.1 mm 1 mps 578 mmHg 94%
    23:00 +3°C° 0 mm 1 mps 577 mmHg 94%

    23 May, Wednesday

    Time Temperature Precipitation Wind Pressure Humidity
    00:00 +2°C° 0 mm 1 mps 577 mmHg 94%
    01:00 +2°C° 0 mm 1 mps 577 mmHg 94%
    02:00 +2°C° 0 mm 1 mps 577 mmHg 94%
    03:00 +1°C° 0 mm 1 mps 577 mmHg 94%
    04:00 +1°C° 0 mm 1 mps 577 mmHg 93%
    05:00 +3°C° 0 mm 1 mps 578 mmHg 89%
    06:00 +5°C° 0 mm 1 mps 579 mmHg 85%
    07:00 +7°C° 0 mm 1 mps 580 mmHg 80%
    08:00 +8°C° 0 mm 1 mps 581 mmHg 73%
    09:00 +10°C° 0 mm 1 mps 582 mmHg 66%
    10:00 +12°C° 0 mm 1 mps 583 mmHg 59%
    11:00 +12°C° 0.7 mm 1 mps 583 mmHg 60%
    12:00 +12°C° 0.7 mm 1 mps 583 mmHg 61%
    13:00 +12°C° 0.7 mm 1 mps 583 mmHg 61%
    14:00 +12°C° 1.1 mm 1 mps 583 mmHg 65%
    15:00 +12°C° 1.1 mm 1 mps 582 mmHg 68%
    16:00 +11°C° 1.1 mm 1 mps 582 mmHg 72%
    17:00 +10°C° 0.8 mm 1 mps 582 mmHg 78%
    18:00 +9°C° 0.8 mm 1 mps 581 mmHg 84%
    19:00 +7°C° 0.8 mm 0 mps 581 mmHg 91%
    20:00 +6°C° 0.4 mm 0 mps 580 mmHg 92%
    21:00 +5°C° 0.4 mm 0 mps 580 mmHg 93%
    22:00 +4°C° 0.4 mm 1 mps 580 mmHg 95%
    23:00 +4°C° 0.1 mm 1 mps 580 mmHg 94%

    24 May, Thursday

    Time Temperature Precipitation Wind Pressure Humidity
    00:00 +4°C° 0.1 mm 1 mps 579 mmHg 94%
    01:00 +3°C° 0.1 mm 1 mps 579 mmHg 94%
    02:00 +3°C° 0 mm 1 mps 579 mmHg 94%
    03:00 +3°C° 0 mm 1 mps 579 mmHg 94%
    04:00 +2°C° 0 mm 1 mps 579 mmHg 94%
    05:00 +4°C° 0 mm 1 mps 580 mmHg 90%
    06:00 +6°C° 0 mm 1 mps 581 mmHg 86%
    07:00 +7°C° 0 mm 0 mps 582 mmHg 82%
    08:00 +10°C° 0.1 mm 1 mps 583 mmHg 75%
    09:00 +11°C° 0.1 mm 1 mps 583 mmHg 68%
    10:00 +13°C° 0.1 mm 1 mps 584 mmHg 60%
    11:00 +13°C° 0.9 mm 1 mps 584 mmHg 63%
    12:00 +13°C° 0.9 mm 1 mps 583 mmHg 65%
    13:00 +13°C° 0.9 mm 1 mps 583 mmHg 68%
    14:00 +12°C° 1.7 mm 1 mps 583 mmHg 71%
    15:00 +12°C° 1.7 mm 1 mps 582 mmHg 74%
    16:00 +12°C° 1.7 mm 1 mps 582 mmHg 77%
    17:00 +11°C° 1.3 mm 1 mps 582 mmHg 82%
    18:00 +10°C° 1.3 mm 1 mps 581 mmHg 86%
    19:00 +9°C° 1.3 mm 1 mps 581 mmHg 91%
    20:00 +7°C° 0.5 mm 1 mps 581 mmHg 93%
    21:00 +6°C° 0.5 mm 1 mps 580 mmHg 94%
    22:00 +4°C° 0.5 mm 0 mps 580 mmHg 96%
    23:00 +4°C° 0.1 mm 1 mps 579 mmHg 96%

    25 May, Friday

    Time Temperature Precipitation Wind Pressure Humidity
    00:00 +4°C° 0.1 mm 1 mps 579 mmHg 96%
    01:00 +4°C° 0.1 mm 1 mps 579 mmHg 96%
    02:00 +3°C° 0.1 mm 1 mps 579 mmHg 96%
    03:00 +3°C° 0.1 mm 1 mps 579 mmHg 96%
    04:00 +3°C° 0.1 mm 1 mps 578 mmHg 96%
    05:00 +5°C° 0 mm 1 mps 579 mmHg 93%
    06:00 +6°C° 0 mm 1 mps 580 mmHg 90%
    07:00 +8°C° 0 mm 1 mps 581 mmHg 87%
    08:00 +10°C° 0.1 mm 1 mps 581 mmHg 80%
    09:00 +11°C° 0.1 mm 1 mps 582 mmHg 73%
    10:00 +13°C° 0.1 mm 1 mps 583 mmHg 65%
    11:00 +13°C° 0.9 mm 1 mps 582 mmHg 67%
    12:00 +12°C° 0.9 mm 1 mps 582 mmHg 68%
    13:00 +12°C° 0.9 mm 2 mps 582 mmHg 70%
    14:00 +12°C° 1.7 mm 2 mps 582 mmHg 72%
    15:00 +12°C° 1.7 mm 2 mps 581 mmHg 74%
    16:00 +12°C° 1.7 mm 2 mps 581 mmHg 76%
    17:00 +10°C° 1.6 mm 1 mps 581 mmHg 81%
    18:00 +9°C° 1.6 mm 1 mps 580 mmHg 86%
    19:00 +8°C° 1.6 mm 1 mps 580 mmHg 92%
    20:00 +7°C° 0.6 mm 1 mps 579 mmHg 93%
    21:00 +6°C° 0.6 mm 1 mps 579 mmHg 95%
    22:00 +4°C° 0.6 mm 1 mps 579 mmHg 96%
    23:00 +4°C° 0.1 mm 1 mps 578 mmHg 96%
    Show more